Weather in Kulob

Tajikistan     37˚54′59″N   69˚47′34″E
temp.,
°C
wind,
m/s
gust,
m/s
humid.,
%
clouds,
%
prec.,
mm/h
press.,
hPa
HPBL,
m
3 december, thu
thu323:00+9˚nw117252 0.0 102522
02:00+7˚nnw007285 0.0 102622
05:00+6˚sse016860 0.0 102722
08:00+7˚wnw116968 0.0 102722
11:00+10˚sw224984 0.0 1026266
14:00+12˚sse1145100 0.0 1023349
17:00+10˚sw2254100 0.0 102231
20:00+8˚ssw2253100 0.0 102369
4 december, fri
fri423:00+5˚ssw3582100 1.8 1024406
02:00+5˚se1193100 3.8 1024156
05:00+6˚ssw1192100 5.4 1024164
08:00+5˚ssw1296100 1.6 1025124
11:00+5˚ssw2396100 4.3 1025193
14:00+5˚s2295100 2.1 1024181
17:00+5˚ssw3397100 3.7 1026197
20:00+3˚sw3496100 1.2 1028211
5 december, sat
sat523:00+2˚sw2294100 1.6 1029194
02:00+2˚sw0091100 0.1 1029147
05:00+3˚nw1188100 0.1 1029122
08:00+4˚w008599 0.0 102964
11:00+7˚w116995 0.0 1026528
14:00+9˚sw216032 0.0 1023769
17:00+7˚ssw227216 0.0 102432
20:00+5˚ese01800 0.0 102722
6 december, sun
sun623:00+4˚ne12780 0.0 102822
02:00+3˚ne23620 0.0 102829
05:00+3˚ne235211 0.0 102829
08:00+3˚ne234876 0.0 102930
11:00+9˚n113147 0.0 1027400
14:00+12˚wnw022951 0.0 1024653
17:00+8˚nw014762 0.0 102424
20:00+7˚ne234990 0.0 102441
7 december, mon
mon723:00+7˚nne454395 0.0 102280
02:00+7˚ene1244100 0.0 101928
05:00+7˚ne2243100 0.0 101826
08:00+7˚ene1147100 0.0 101923
11:00+9˚wsw2150100 0.1 1021369
14:00+6˚ssw3373100 0.9 1021449
17:00+4˚sse2293100 3.9 1023206
20:00+4˚nne1192100 0.5 1024144